Time,TemperatureF,DewpointF,PressureIn,WindDirection,WindDirectionDegrees,WindSpeedMPH,WindSpeedGustMPH,Humidity,HourlyPrecipIn,Conditions,Clouds,dailyrainin,SolarRadiationWatts/m^2,SoftwareType,DateUTC
2013-03-25 00:00:00,23.3,21.1,30.12,NW,317,9.0,9.0,91,0.00,,,0.00,0,Wunderground v.1.15,2013-03-25 05:00:00,
2013-03-25 00:05:00,23.3,21.1,30.13,NNW,341,9.0,9.0,91,0.00,,,0.00,0,Wunderground v.1.15,2013-03-25 05:05:00,
2013-03-25 00:15:00,23.2,21.0,30.13,NNW,334,8.0,9.0,91,0.00,,,0.00,0,Wunderground v.1.15,2013-03-25 05:15:00,
2013-03-25 00:20:00,23.2,21.0,30.13,NNE,31,8.0,8.0,91,0.00,,,0.00,0,Wunderground v.1.15,2013-03-25 05:20:00,
2013-03-25 00:30:00,23.2,21.0,30.13,North,355,9.0,12.0,91,0.00,,,0.00,0,Wunderground v.1.15,2013-03-25 05:30:00,
2013-03-25 00:35:00,23.1,20.9,30.13,North,355,9.0,13.0,91,0.00,,,0.00,0,Wunderground v.1.15,2013-03-25 05:35:00,
2013-03-25 00:40:00,23.1,20.9,30.13,NW,323,9.0,9.0,91,0.00,,,0.00,0,Wunderground v.1.15,2013-03-25 05:40:00,
2013-03-25 00:45:00,23.1,20.9,30.13,NNW,330,9.0,10.0,91,0.00,,,0.00,0,Wunderground v.1.15,2013-03-25 05:45:00,
2013-03-25 00:55:00,23.1,20.9,30.13,North,355,8.0,8.0,91,0.00,,,0.00,0,Wunderground v.1.15,2013-03-25 05:55:00,
2013-03-25 01:00:00,23.1,20.9,30.13,NE,38,8.0,10.0,91,0.00,,,0.00,0,Wunderground v.1.15,2013-03-25 06:00:00,
2013-03-25 01:05:00,23.1,20.9,30.13,NNW,338,8.0,10.0,91,0.00,,,0.00,0,Wunderground v.1.15,2013-03-25 06:05:00,
2013-03-25 01:15:00,23.1,20.9,30.13,North,355,8.0,8.0,91,0.00,,,0.00,0,Wunderground v.1.15,2013-03-25 06:15:00,
2013-03-25 01:20:00,23.1,20.9,30.13,North,350,9.0,9.0,91,0.00,,,0.00,0,Wunderground v.1.15,2013-03-25 06:20:00,
2013-03-25 01:25:00,23.1,21.1,30.13,NNW,338,8.0,9.0,92,0.00,,,0.00,0,Wunderground v.1.15,2013-03-25 06:25:00,
2013-03-25 01:30:00,23.1,20.9,30.13,North,351,8.0,8.0,91,0.00,,,0.00,0,Wunderground v.1.15,2013-03-25 06:30:00,
2013-03-25 01:35:00,23.2,21.2,30.13,NW,318,8.0,8.0,92,0.00,,,0.00,0,Wunderground v.1.15,2013-03-25 06:35:00,
2013-03-25 01:45:00,23.2,21.0,30.13,NNW,348,7.0,12.0,91,0.00,,,0.00,0,Wunderground v.1.15,2013-03-25 06:45:00,
2013-03-25 01:50:00,23.1,20.9,30.14,NNW,346,8.0,8.0,91,0.00,,,0.00,0,Wunderground v.1.15,2013-03-25 06:50:00,
2013-03-25 01:55:00,23.1,20.9,30.13,NNW,339,8.0,10.0,91,0.00,,,0.00,0,Wunderground v.1.15,2013-03-25 06:55:00,
2013-03-25 02:00:00,23.1,20.9,30.13,NNW,346,9.0,9.0,91,0.00,,,0.00,0,Wunderground v.1.15,2013-03-25 07:00:00,
2013-03-25 02:05:00,23.1,20.9,30.13,NNW,332,9.0,9.0,91,0.00,,,0.00,0,Wunderground v.1.15,2013-03-25 07:05:00,
2013-03-25 02:15:00,23.0,20.8,30.13,NNE,17,8.0,11.0,91,0.00,,,0.00,0,Wunderground v.1.15,2013-03-25 07:15:00,
2013-03-25 02:20:00,22.9,20.7,30.13,NNW,346,8.0,11.0,91,0.00,,,0.00,0,Wunderground v.1.15,2013-03-25 07:20:00,
2013-03-25 02:25:00,22.9,20.7,30.13,NE,55,9.0,11.0,91,0.00,,,0.00,0,Wunderground v.1.15,2013-03-25 07:25:00,
2013-03-25 02:30:00,22.8,20.8,30.13,NNW,333,7.0,7.0,92,0.00,,,0.00,0,Wunderground v.1.15,2013-03-25 07:30:00,
2013-03-25 02:40:00,22.8,20.6,30.13,North,5,8.0,8.0,91,0.00,,,0.00,0,Wunderground v.1.15,2013-03-25 07:40:00,
2013-03-25 02:45:00,22.7,20.5,30.13,North,351,8.0,8.0,91,0.00,,,0.00,0,Wunderground v.1.15,2013-03-25 07:45:00,
2013-03-25 02:50:00,22.7,20.5,30.13,NNW,344,8.0,10.0,91,0.00,,,0.00,0,Wunderground v.1.15,2013-03-25 07:50:00,
2013-03-25 02:55:00,22.7,20.7,30.13,NNW,335,9.0,10.0,92,0.00,,,0.00,0,Wunderground v.1.15,2013-03-25 07:55:00,
2013-03-25 03:05:00,22.6,20.6,30.13,North,5,9.0,9.0,92,0.00,,,0.00,0,Wunderground v.1.15,2013-03-25 08:05:00,
2013-03-25 03:15:00,22.5,20.3,30.13,NNW,336,8.0,11.0,91,0.00,,,0.00,0,Wunderground v.1.15,2013-03-25 08:15:00,
2013-03-25 03:20:00,22.5,20.3,30.13,NNW,334,9.0,9.0,91,0.00,,,0.00,0,Wunderground v.1.15,2013-03-25 08:20:00,
2013-03-25 03:30:00,22.5,20.5,30.13,North,355,8.0,8.0,92,0.00,,,0.00,0,Wunderground v.1.15,2013-03-25 08:30:00,
2013-03-25 03:35:00,22.5,20.5,30.13,North,349,8.0,9.0,92,0.00,,,0.00,0,Wunderground v.1.15,2013-03-25 08:35:00,
2013-03-25 03:40:00,22.5,20.5,30.13,North,355,8.0,8.0,92,0.00,,,0.00,0,Wunderground v.1.15,2013-03-25 08:40:00,
2013-03-25 03:45:00,22.6,20.6,30.13,North,351,8.0,8.0,92,0.00,,,0.00,0,Wunderground v.1.15,2013-03-25 08:45:00,
2013-03-25 03:55:00,22.6,20.6,30.13,NNW,347,8.0,9.0,92,0.00,,,0.00,0,Wunderground v.1.15,2013-03-25 08:55:00,
2013-03-25 04:00:00,22.6,20.6,30.13,North,360,7.0,9.0,92,0.00,,,0.00,0,Wunderground v.1.15,2013-03-25 09:00:00,
2013-03-25 04:05:00,22.6,20.6,30.13,North,355,7.0,9.0,92,0.00,,,0.00,0,Wunderground v.1.15,2013-03-25 09:05:00,
2013-03-25 04:15:00,22.7,20.7,30.13,NNW,329,7.0,8.0,92,0.00,,,0.00,0,Wunderground v.1.15,2013-03-25 09:15:00,
2013-03-25 04:20:00,22.8,20.8,30.13,North,351,7.0,9.0,92,0.00,,,0.00,0,Wunderground v.1.15,2013-03-25 09:20:00,
2013-03-25 04:30:00,22.7,20.7,30.13,NNE,22,8.0,8.0,92,0.00,,,0.00,0,Wunderground v.1.15,2013-03-25 09:30:00,
2013-03-25 04:35:00,22.7,20.7,30.13,NNW,346,8.0,8.0,92,0.00,,,0.00,0,Wunderground v.1.15,2013-03-25 09:35:00,
2013-03-25 04:40:00,22.8,20.8,30.14,NNW,327,8.0,8.0,92,0.00,,,0.00,0,Wunderground v.1.15,2013-03-25 09:40:00,
2013-03-25 04:50:00,22.8,20.8,30.14,NNW,338,8.0,8.0,92,0.00,,,0.00,0,Wunderground v.1.15,2013-03-25 09:50:00,
2013-03-25 04:55:00,22.8,20.8,30.14,NNW,346,9.0,11.0,92,0.00,,,0.00,0,Wunderground v.1.15,2013-03-25 09:55:00,
2013-03-25 05:00:00,22.8,20.8,30.14,NNW,341,9.0,9.0,92,0.00,,,0.00,0,Wunderground v.1.15,2013-03-25 10:00:00,
2013-03-25 05:05:00,22.8,20.8,30.14,North,355,8.0,9.0,92,0.00,,,0.00,0,Wunderground v.1.15,2013-03-25 10:05:00,
2013-03-25 05:20:00,22.6,20.4,30.15,NNE,33,8.0,8.0,91,0.00,,,0.00,0,Wunderground v.1.15,2013-03-25 10:20:00,
2013-03-25 05:30:00,22.6,20.6,30.15,NNW,331,8.0,8.0,92,0.00,,,0.00,0,Wunderground v.1.15,2013-03-25 10:30:00,
2013-03-25 05:35:00,22.5,20.5,30.15,North,355,8.0,8.0,92,0.00,,,0.00,0,Wunderground v.1.15,2013-03-25 10:35:00,
2013-03-25 05:40:00,22.4,20.4,30.15,NNW,342,8.0,9.0,92,0.00,,,0.00,0,Wunderground v.1.15,2013-03-25 10:40:00,
2013-03-25 05:45:00,22.4,20.4,30.16,NNE,13,8.0,9.0,92,0.00,,,0.00,0,Wunderground v.1.15,2013-03-25 10:45:00,
2013-03-25 05:55:00,22.4,20.4,30.16,NNW,346,7.0,8.0,92,0.00,,,0.00,0,Wunderground v.1.15,2013-03-25 10:55:00,
2013-03-25 06:05:00,22.4,20.4,30.16,NNW,332,7.0,9.0,92,0.00,,,0.00,0,Wunderground v.1.15,2013-03-25 11:05:00,
2013-03-25 06:15:00,22.4,20.4,30.17,NW,320,7.0,7.0,92,0.00,,,0.00,0,Wunderground v.1.15,2013-03-25 11:15:00,
2013-03-25 06:20:00,22.4,20.4,30.17,NNW,336,6.0,6.0,92,0.00,,,0.00,0,Wunderground v.1.15,2013-03-25 11:20:00,
2013-03-25 06:25:00,22.4,20.4,30.17,NNW,348,6.0,6.0,92,0.00,,,0.00,0,Wunderground v.1.15,2013-03-25 11:25:00,
2013-03-25 06:30:00,22.4,20.4,30.17,NW,314,7.0,9.0,92,0.00,,,0.00,0,Wunderground v.1.15,2013-03-25 11:30:00,
2013-03-25 06:40:00,22.3,20.1,30.17,North,360,7.0,7.0,91,0.00,,,0.00,0,Wunderground v.1.15,2013-03-25 11:40:00,
2013-03-25 06:45:00,22.2,20.0,30.17,NW,325,7.0,7.0,91,0.00,,,0.00,0,Wunderground v.1.15,2013-03-25 11:45:00,
2013-03-25 06:50:00,22.1,19.9,30.17,NNW,344,7.0,7.0,91,0.00,,,0.00,0,Wunderground v.1.15,2013-03-25 11:50:00,
2013-03-25 07:00:00,22.0,19.8,30.18,NNW,336,7.0,7.0,91,0.00,,,0.00,0,Wunderground v.1.15,2013-03-25 12:00:00,
2013-03-25 07:05:00,21.9,19.7,30.18,NNW,348,7.0,7.0,91,0.00,,,0.00,0,Wunderground v.1.15,2013-03-25 12:05:00,
2013-03-25 07:15:00,21.8,19.6,30.19,NNE,15,7.0,10.0,91,0.00,,,0.00,0,Wunderground v.1.15,2013-03-25 12:15:00,
2013-03-25 07:20:00,21.7,19.5,30.19,NNW,331,7.0,7.0,91,0.00,,,0.00,0,Wunderground v.1.15,2013-03-25 12:20:00,
2013-03-25 07:25:00,21.7,19.5,30.19,NNW,343,7.0,7.0,91,0.00,,,0.00,7,Wunderground v.1.15,2013-03-25 12:25:00,
2013-03-25 07:35:00,21.6,19.4,30.19,NNW,331,7.0,8.0,91,0.00,,,0.00,16,Wunderground v.1.15,2013-03-25 12:35:00,
2013-03-25 07:40:00,21.7,19.5,30.20,NNW,347,7.0,8.0,91,0.00,,,0.00,23,Wunderground v.1.15,2013-03-25 12:40:00,
2013-03-25 07:45:00,21.7,19.5,30.20,NW,313,7.0,8.0,91,0.00,,,0.00,32,Wunderground v.1.15,2013-03-25 12:45:00,
2013-03-25 07:50:00,21.7,19.5,30.20,NNW,338,7.0,7.0,91,0.00,,,0.00,40,Wunderground v.1.15,2013-03-25 12:50:00,
2013-03-25 08:00:00,21.8,19.6,30.20,NNW,329,6.0,7.0,91,0.00,,,0.00,56,Wunderground v.1.15,2013-03-25 13:00:00,
2013-03-25 08:05:00,21.9,19.7,30.20,North,355,6.0,9.0,91,0.00,,,0.00,69,Wunderground v.1.15,2013-03-25 13:05:00,
2013-03-25 08:15:00,22.0,19.5,30.21,NNW,343,6.0,6.0,90,0.00,,,0.00,90,Wunderground v.1.15,2013-03-25 13:15:00,
2013-03-25 08:20:00,22.1,19.6,30.21,NW,326,6.0,7.0,90,0.00,,,0.00,100,Wunderground v.1.15,2013-03-25 13:20:00,
2013-03-25 08:25:00,22.2,19.7,30.21,North,349,7.0,10.0,90,0.00,,,0.00,111,Wunderground v.1.15,2013-03-25 13:25:00,
2013-03-25 08:35:00,22.4,19.9,30.21,North,355,6.0,9.0,90,0.00,,,0.00,123,Wunderground v.1.15,2013-03-25 13:35:00,
2013-03-25 08:40:00,22.5,20.0,30.22,NNW,340,7.0,9.0,90,0.00,,,0.00,134,Wunderground v.1.15,2013-03-25 13:40:00,
2013-03-25 08:50:00,22.9,20.1,30.22,NE,39,7.0,7.0,89,0.00,,,0.00,155,Wunderground v.1.15,2013-03-25 13:50:00,
2013-03-25 08:55:00,23.0,20.2,30.22,North,351,6.0,7.0,89,0.00,,,0.00,171,Wunderground v.1.15,2013-03-25 13:55:00,
2013-03-25 09:00:00,23.2,20.4,30.22,WNW,283,6.0,6.0,89,0.00,,,0.00,181,Wunderground v.1.15,2013-03-25 14:00:00,
2013-03-25 09:05:00,23.3,20.5,30.22,NE,49,6.0,8.0,89,0.00,,,0.00,193,Wunderground v.1.15,2013-03-25 14:05:00,
2013-03-25 09:15:00,23.4,20.4,30.23,NNW,329,7.0,8.0,88,0.00,,,0.00,213,Wunderground v.1.15,2013-03-25 14:15:00,
2013-03-25 09:25:00,23.6,20.3,30.23,NNW,333,8.0,8.0,87,0.00,,,0.00,232,Wunderground v.1.15,2013-03-25 14:25:00,
2013-03-25 09:30:00,23.7,20.4,30.23,NNW,334,9.0,10.0,87,0.00,,,0.00,248,Wunderground v.1.15,2013-03-25 14:30:00,
2013-03-25 09:35:00,23.8,20.5,30.23,NW,313,9.0,10.0,87,0.00,,,0.00,258,Wunderground v.1.15,2013-03-25 14:35:00,
2013-03-25 09:45:00,24.1,20.8,30.23,North,355,8.0,11.0,87,0.00,,,0.00,295,Wunderground v.1.15,2013-03-25 14:45:00,
2013-03-25 09:50:00,24.4,20.8,30.23,NNW,343,8.0,8.0,86,0.00,,,0.00,308,Wunderground v.1.15,2013-03-25 14:50:00,
2013-03-25 09:55:00,24.4,20.5,30.24,NW,310,9.0,9.0,85,0.00,,,0.00,313,Wunderground v.1.15,2013-03-25 14:55:00,
2013-03-25 10:05:00,24.9,21.0,30.24,WNW,301,7.0,8.0,85,0.00,,,0.00,364,Wunderground v.1.15,2013-03-25 15:05:00,
2013-03-25 10:15:00,25.3,21.4,30.24,North,5,8.0,8.0,85,0.00,,,0.00,431,Wunderground v.1.15,2013-03-25 15:15:00,
2013-03-25 10:20:00,25.8,21.6,30.24,North,5,8.0,8.0,84,0.00,,,0.00,480,Wunderground v.1.15,2013-03-25 15:20:00,
2013-03-25 10:25:00,26.1,21.6,30.24,North,5,8.0,13.0,83,0.00,,,0.00,513,Wunderground v.1.15,2013-03-25 15:25:00,
2013-03-25 10:30:00,26.2,22.0,30.24,NNW,335,9.0,9.0,84,0.00,,,0.00,559,Wunderground v.1.15,2013-03-25 15:30:00,
2013-03-25 10:35:00,26.5,22.0,30.25,NNW,327,9.0,11.0,83,0.00,,,0.00,531,Wunderground v.1.15,2013-03-25 15:35:00,
2013-03-25 10:45:00,26.3,21.3,30.25,North,351,10.0,11.0,81,0.00,,,0.00,503,Wunderground v.1.15,2013-03-25 15:45:00,
2013-03-25 10:50:00,26.4,21.4,30.25,North,355,10.0,11.0,81,0.00,,,0.00,526,Wunderground v.1.15,2013-03-25 15:50:00,
2013-03-25 10:55:00,26.5,21.5,30.25,NNE,13,10.0,11.0,81,0.00,,,0.00,624,Wunderground v.1.15,2013-03-25 15:55:00,
2013-03-25 11:00:00,26.8,21.8,30.25,North,355,10.0,10.0,81,0.00,,,0.00,557,Wunderground v.1.15,2013-03-25 16:00:00,
2013-03-25 11:05:00,27.0,21.9,30.25,NNE,13,10.0,10.0,81,0.00,,,0.00,664,Wunderground v.1.15,2013-03-25 16:05:00,
2013-03-25 11:15:00,27.1,22.0,30.25,North,350,10.0,14.0,81,0.00,,,0.00,659,Wunderground v.1.15,2013-03-25 16:15:00,
2013-03-25 11:20:00,27.3,22.2,30.25,North,350,10.0,10.0,81,0.00,,,0.00,578,Wunderground v.1.15,2013-03-25 16:20:00,
2013-03-25 11:25:00,27.3,22.5,30.25,NNW,342,10.0,11.0,82,0.00,,,0.00,691,Wunderground v.1.15,2013-03-25 16:25:00,
2013-03-25 11:30:00,27.3,21.9,30.25,NNE,27,10.0,10.0,80,0.00,,,0.00,564,Wunderground v.1.15,2013-03-25 16:30:00,
2013-03-25 11:35:00,27.5,22.4,30.26,North,355,9.0,10.0,81,0.00,,,0.00,536,Wunderground v.1.15,2013-03-25 16:35:00,
2013-03-25 11:45:00,27.8,22.4,30.26,NNW,347,10.0,13.0,80,0.00,,,0.00,564,Wunderground v.1.15,2013-03-25 16:45:00,
2013-03-25 11:55:00,28.2,23.1,30.25,NNE,28,10.0,11.0,81,0.00,,,0.00,737,Wunderground v.1.15,2013-03-25 16:55:00,
2013-03-25 12:00:00,28.4,23.3,30.25,NNW,346,9.0,9.0,81,0.00,,,0.00,490,Wunderground v.1.15,2013-03-25 17:00:00,
2013-03-25 12:05:00,28.6,23.2,30.26,NNW,346,9.0,13.0,80,0.00,,,0.00,563,Wunderground v.1.15,2013-03-25 17:05:00,
2013-03-25 12:15:00,28.8,23.4,30.26,NNE,30,10.0,17.0,80,0.00,,,0.00,802,Wunderground v.1.15,2013-03-25 17:15:00,
2013-03-25 12:20:00,28.9,23.2,30.25,NNE,24,10.0,11.0,79,0.00,,,0.00,824,Wunderground v.1.15,2013-03-25 17:20:00,
2013-03-25 12:30:00,29.0,23.6,30.25,North,350,10.0,10.0,80,0.00,,,0.00,807,Wunderground v.1.15,2013-03-25 17:30:00,
2013-03-25 12:35:00,29.2,23.8,30.25,NNW,329,9.0,10.0,80,0.00,,,0.00,872,Wunderground v.1.15,2013-03-25 17:35:00,
2013-03-25 12:40:00,29.4,23.7,30.25,NNW,346,9.0,11.0,79,0.00,,,0.00,802,Wunderground v.1.15,2013-03-25 17:40:00,
2013-03-25 12:45:00,29.8,24.4,30.25,North,350,8.0,11.0,80,0.00,,,0.00,902,Wunderground v.1.15,2013-03-25 17:45:00,
2013-03-25 12:55:00,29.8,24.4,30.25,North,350,8.0,11.0,80,0.00,,,0.00,854,Wunderground v.1.15,2013-03-25 17:55:00,
2013-03-25 13:00:00,29.6,24.2,30.26,North,355,9.0,9.0,80,0.00,,,0.00,559,Wunderground v.1.15,2013-03-25 18:00:00,
2013-03-25 13:05:00,29.9,23.9,30.25,North,350,9.0,12.0,78,0.00,,,0.00,874,Wunderground v.1.15,2013-03-25 18:05:00,
2013-03-25 13:15:00,29.8,24.4,30.25,NNW,333,9.0,9.0,80,0.00,,,0.00,338,Wunderground v.1.15,2013-03-25 18:15:00,
2013-03-25 13:25:00,30.4,24.7,30.25,North,349,9.0,13.0,79,0.00,,,0.00,420,Wunderground v.1.15,2013-03-25 18:25:00,
2013-03-25 13:30:00,30.6,24.9,30.25,NNW,348,9.0,9.0,79,0.00,,,0.00,830,Wunderground v.1.15,2013-03-25 18:30:00,
2013-03-25 13:35:00,30.5,24.5,30.25,North,355,8.0,9.0,78,0.00,,,0.00,923,Wunderground v.1.15,2013-03-25 18:35:00,
2013-03-25 13:40:00,30.5,24.5,30.25,North,5,9.0,11.0,78,0.00,,,0.00,853,Wunderground v.1.15,2013-03-25 18:40:00,
2013-03-25 13:50:00,30.1,24.4,30.25,North,11,9.0,12.0,79,0.00,,,0.00,283,Wunderground v.1.15,2013-03-25 18:50:00,
2013-03-25 13:55:00,29.9,24.5,30.25,NW,324,9.0,12.0,80,0.00,,,0.00,378,Wunderground v.1.15,2013-03-25 18:55:00,
2013-03-25 14:00:00,30.2,25.1,30.25,North,355,8.0,8.0,81,0.00,,,0.00,341,Wunderground v.1.15,2013-03-25 19:00:00,
2013-03-25 14:10:00,30.7,24.7,30.25,NE,34,9.0,9.0,78,0.00,,,0.00,969,Wunderground v.1.15,2013-03-25 19:10:00,
2013-03-25 14:20:00,30.9,24.5,30.25,North,351,9.0,13.0,77,0.00,,,0.00,742,Wunderground v.1.15,2013-03-25 19:20:00,
2013-03-25 14:25:00,30.9,24.5,30.25,North,360,10.0,13.0,77,0.00,,,0.00,830,Wunderground v.1.15,2013-03-25 19:25:00,
2013-03-25 14:30:00,31.1,24.7,30.25,North,11,10.0,10.0,77,0.00,,,0.00,870,Wunderground v.1.15,2013-03-25 19:30:00,
2013-03-25 14:35:00,31.1,25.0,30.25,North,349,9.0,10.0,78,0.00,,,0.00,229,Wunderground v.1.15,2013-03-25 19:35:00,
2013-03-25 14:45:00,30.8,24.4,30.25,North,355,9.0,9.0,77,0.00,,,0.00,677,Wunderground v.1.15,2013-03-25 19:45:00,
2013-03-25 14:50:00,30.9,24.8,30.25,NNW,348,10.0,14.0,78,0.00,,,0.00,875,Wunderground v.1.15,2013-03-25 19:50:00,
2013-03-25 14:55:00,31.4,25.0,30.25,NW,306,10.0,10.0,77,0.00,,,0.00,795,Wunderground v.1.15,2013-03-25 19:55:00,
2013-03-25 15:00:00,31.2,24.8,30.25,NNW,340,9.0,10.0,77,0.00,,,0.00,766,Wunderground v.1.15,2013-03-25 20:00:00,
2013-03-25 15:05:00,31.1,24.4,30.24,NNW,344,9.0,10.0,76,0.00,,,0.00,789,Wunderground v.1.15,2013-03-25 20:05:00,
2013-03-25 15:15:00,31.2,24.8,30.25,North,350,9.0,10.0,77,0.00,,,0.00,837,Wunderground v.1.15,2013-03-25 20:15:00,
2013-03-25 15:20:00,31.5,25.1,30.25,North,5,9.0,11.0,77,0.00,,,0.00,772,Wunderground v.1.15,2013-03-25 20:20:00,